This is the latest recevied weather packets stored in our database for station/object WW5JC. If no packets are shown the sender has not sent any weather packets the latest 10 day(s).
| Time | Temp. | Humidity | Pressure | Rain* | Wind** | Luminosity | Snow |
|---|---|---|---|---|---|---|---|
| 1777767536 | 22.22° C | 44% | 1020.4 hPa | 0 mm | - | 33 W/m² | - |
| 1777767232 | 22.22° C | 44% | 1020.2 hPa | 0 mm | - | 36 W/m² | - |
| 1777766930 | 22.22° C | 44% | 1020.3 hPa | 0 mm | - | 46 W/m² | - |
| 1777766627 | 22.78° C | 41% | 1020.3 hPa | 0 mm | - | 58 W/m² | - |
| 1777766324 | 22.78° C | 44% | 1020.3 hPa | 0 mm | - | 67 W/m² | - |
| 1777766021 | 22.78° C | 44% | 1020.2 hPa | 0 mm | - | 75 W/m² | - |
| 1777765718 | 22.78° C | 43% | 1020.2 hPa | 0 mm | - | 86 W/m² | - |
| 1777765415 | 22.78° C | 42% | 1020.3 hPa | 0 mm | - | 95 W/m² | - |
| 1777765112 | 22.78° C | 46% | 1020.3 hPa | 0 mm | - | 106 W/m² | - |
| 1777764809 | 23.33° C | 40% | 1020.5 hPa | 0 mm | - | 117 W/m² | - |
| 1777764506 | 23.33° C | 42% | 1020.2 hPa | 0 mm | - | 127 W/m² | - |
| 1777764202 | 22.78° C | 40% | 1020.5 hPa | 0 mm | - | 139 W/m² | - |
| 1777763898 | 23.33° C | 41% | 1020.4 hPa | 0 mm | - | 150 W/m² | - |
| 1777763597 | 23.33° C | 40% | 1020.4 hPa | 0 mm | - | 162 W/m² | - |
| 1777763294 | 23.89° C | 39% | 1020.4 hPa | 0 mm | - | 175 W/m² | - |
| 1777762992 | 23.33° C | 41% | 1020.4 hPa | 0 mm | - | 189 W/m² | - |
| 1777762689 | 23.33° C | 38% | 1020.4 hPa | 0 mm | - | 204 W/m² | - |
| 1777762386 | 22.78° C | 43% | 1020.5 hPa | 0 mm | - | 217 W/m² | - |
| 1777762082 | 22.78° C | 40% | 1020.5 hPa | 0 mm | - | 233 W/m² | - |
| 1777761779 | 23.33° C | 41% | 1020.5 hPa | 0 mm | - | 247 W/m² | - |
| 1777761476 | 23.33° C | 41% | 1020.5 hPa | 0 mm | - | 262 W/m² | - |
| 1777761174 | 22.78° C | 41% | 1020.4 hPa | 0 mm | - | 276 W/m² | - |
| 1777760871 | 22.78° C | 40% | 1020.7 hPa | 0 mm | - | 290 W/m² | - |
| 1777760569 | 23.33° C | 41% | 1020.6 hPa | 0 mm | - | 302 W/m² | - |
| 1777760264 | 23.33° C | 42% | 1020.5 hPa | 0 mm | - | 315 W/m² | - |
* Rain latest hour (hover to see other rain measurements)
** Current wind speed in m/s (hover to see current wind gust speed)